| time (UTC) | temp F | wind direction | speed MPH | gust MPH | rain 1hr in | rain 24hr in | rain mn in | humidity % | barometer mb |
| 20260906014528 | 57 | 293 | 0.0 | 1.0 | 0.00 | 0.14 | 0.01 | 96 | 1016.5 |
| 20260906013031 | 57 | 293 | 0.0 | 1.0 | 0.00 | 0.14 | 0.01 | 96 | 1016.4 |
| 20260906011522 | 58 | 293 | 0.0 | 1.0 | 0.00 | 0.14 | 0.01 | 96 | 1016.2 |
| 20260906010020 | 58 | 307 | 0.0 | 2.0 | 0.00 | 0.14 | 0.01 | 96 | 1016.1 |
| 20260906004518 | 59 | 47 | 0.0 | 2.0 | 0.00 | 0.14 | 0.01 | 96 | 1016.1 |
| 20260906003016 | 59 | 308 | 0.0 | 1.0 | 0.00 | 0.14 | 0.01 | 96 | 1016.2 |
| 20260906001514 | 59 | 338 | 0.0 | 1.0 | 0.00 | 0.14 | 0.01 | 96 | 1016.0 |
| 20260906000014 | 59 | 338 | 0.0 | 1.0 | 0.00 | 0.14 | 0.01 | 96 | 1015.9 |
| 20260905234511 | 60 | 325 | 0.0 | 4.0 | 0.00 | 0.14 | 0.01 | 96 | 1015.9 |
| 20260905233010 | 60 | 270 | 0.0 | 2.0 | 0.01 | 0.14 | 0.01 | 96 | 1015.7 |
| 20260905231520 | 60 | 288 | 0.0 | 1.0 | 0.01 | 0.14 | 0.01 | 96 | 1015.7 |
| 20260905230008 | 60 | 288 | 0.0 | 1.0 | 0.01 | 0.14 | 0.01 | 96 | 1015.7 |
| 20260905224507 | 60 | 20 | 0.0 | 2.0 | 0.01 | 0.14 | 0.01 | 96 | 1015.6 |
| 20260905223006 | 60 | 167 | 0.0 | 2.0 | 0.00 | 0.13 | 0.00 | 95 | 1015.5 |
| 20260905221506 | 60 | 18 | 0.0 | 1.0 | 0.00 | 0.13 | 0.00 | 95 | 1015.6 |
| 20260905220002 | 61 | 45 | 0.0 | 2.0 | 0.00 | 0.13 | 0.13 | 95 | 1015.3 |
| 20260905214604 | 61 | 12 | 0.0 | 1.0 | 0.00 | 0.13 | 0.13 | 95 | 1015.3 |
| 20260905213059 | 61 | 42 | 0.0 | 0.0 | 0.00 | 0.13 | 0.13 | 95 | 1015.1 |
| 20260905211558 | 62 | 42 | 0.0 | 0.0 | 0.00 | 0.13 | 0.13 | 95 | 1015.1 |
| 20260905210106 | 62 | 42 | 0.0 | 1.0 | 0.00 | 0.13 | 0.13 | 94 | 1015.1 |
| 20260905204557 | 63 | 42 | 0.0 | 1.0 | 0.00 | 0.13 | 0.13 | 94 | 1015.1 |
| 20260905203108 | 63 | 30 | 0.0 | 0.0 | 0.00 | 0.13 | 0.13 | 94 | 1014.8 |
| 20260905201554 | 63 | 32 | 0.0 | 3.0 | 0.00 | 0.13 | 0.13 | 94 | 1014.7 |
| 20260905200056 | 63 | 144 | 1.0 | 3.0 | 0.00 | 0.13 | 0.13 | 93 | 1014.3 |
| 20260905194550 | 64 | 145 | 0.0 | 2.0 | 0.00 | 0.13 | 0.13 | 93 | 1014.5 |
| 20260905193047 | 64 | 100 | 0.0 | 1.0 | 0.00 | 0.13 | 0.13 | 93 | 1014.2 |
| 20260905191546 | 65 | 101 | 0.0 | 0.0 | 0.00 | 0.13 | 0.13 | 93 | 1013.9 |
| 20260905190046 | 65 | 101 | 0.0 | 3.0 | 0.00 | 0.13 | 0.13 | 92 | 1013.7 |
| 20260905184546 | 66 | 134 | 0.0 | 0.0 | 0.00 | 0.13 | 0.13 | 91 | 1013.5 |
| 20260905183040 | 66 | 184 | 0.0 | 1.0 | 0.00 | 0.13 | 0.13 | 90 | 1013.2 |
| 20260905181540 | 67 | 184 | 0.0 | 2.0 | 0.00 | 0.13 | 0.13 | 89 | 1013.1 |
| 20260905180041 | 68 | 156 | 0.0 | 1.0 | 0.00 | 0.13 | 0.13 | 88 | 1012.9 |
| 20260905174539 | 69 | 156 | 0.0 | 1.0 | 0.00 | 0.13 | 0.13 | 87 | 1012.8 |
| 20260905173039 | 70 | 156 | 0.0 | 0.0 | 0.00 | 0.13 | 0.13 | 84 | 1012.4 |
| 20260905171553 | 71 | 137 | 0.0 | 1.0 | 0.00 | 0.13 | 0.13 | 83 | 1012.3 |
| 20260905170037 | 72 | 137 | 0.0 | 2.0 | 0.00 | 0.13 | 0.13 | 82 | 1012.2 |
| 20260905164544 | 72 | 67 | 0.0 | 2.0 | 0.00 | 0.13 | 0.13 | 80 | 1012.1 |
| 20260905163044 | 72 | 119 | 1.0 | 2.0 | 0.00 | 0.13 | 0.13 | 80 | 1011.8 |
| 20260905161535 | 73 | 186 | 0.0 | 3.0 | 0.00 | 0.13 | 0.13 | 78 | 1011.7 |
| 20260905160034 | 73 | 186 | 0.0 | 4.0 | 0.00 | 0.13 | 0.13 | 78 | 1011.7 |
| 20260905154653 | 73 | 182 | 0.0 | 3.0 | 0.00 | 0.13 | 0.13 | 78 | 1011.6 |
| 20260905153033 | 73 | 174 | 2.0 | 3.0 | 0.00 | 0.13 | 0.13 | 77 | 1011.5 |
| 20260905151532 | 72 | 171 | 2.0 | 4.0 | 0.00 | 0.13 | 0.13 | 80 | 1011.6 |
| 20260905150040 | 73 | 159 | 1.0 | 5.0 | 0.00 | 0.13 | 0.13 | 80 | 1011.5 |
| 20260905144535 | 72 | 169 | 2.0 | 6.0 | 0.00 | 0.13 | 0.13 | 82 | 1011.7 |
| 20260905143029 | 70 | 190 | 0.0 | 6.0 | 0.00 | 0.13 | 0.13 | 85 | 1011.8 |
| 20260905141527 | 68 | 188 | 2.0 | 7.0 | 0.00 | 0.13 | 0.13 | 89 | 1011.7 |
| 20260905140029 | 67 | 157 | 3.0 | 5.0 | 0.00 | 0.13 | 0.13 | 88 | 1011.9 |
| 20260905134527 | 66 | 162 | 2.0 | 5.0 | 0.00 | 0.13 | 0.13 | 90 | 1011.9 |
| 20260905133026 | 66 | 171 | 2.0 | 6.0 | 0.00 | 0.13 | 0.13 | 91 | 1012.1 |
| 20260905131535 | 65 | 175 | 3.0 | 6.0 | 0.02 | 0.13 | 0.13 | 91 | 1012.3 |
| 20260905130026 | 65 | 161 | 1.0 | 5.0 | 0.02 | 0.13 | 0.13 | 91 | 1012.2 |
| 20260905124525 | 65 | 186 | 1.0 | 6.0 | 0.04 | 0.13 | 0.13 | 90 | 1012.2 |
| 20260905123034 | 65 | 185 | 3.0 | 5.0 | 0.13 | 0.13 | 0.13 | 88 | 1012.3 |
| 20260905121526 | 66 | 181 | 2.0 | 4.0 | 0.12 | 0.12 | 0.12 | 87 | 1012.4 |
| 20260905120026 | 68 | 250 | 0.0 | 7.0 | 0.11 | 0.11 | 0.11 | 82 | 1012.6 |
| 20260905114523 | 71 | 103 | 1.0 | 6.0 | 0.09 | 0.09 | 0.09 | 75 | 1012.6 |
| 20260905113023 | 73 | 5 | 1.0 | 3.0 | 0.00 | 0.00 | 0.00 | 62 | 1012.7 |
| 20260905111521 | 74 | 96 | 2.0 | 7.0 | 0.00 | 0.00 | 0.00 | 58 | 1012.1 |
| 20260905110016 | 74 | 107 | 3.0 | 6.0 | 0.00 | 0.00 | 0.00 | 57 | 1011.9 |
| 20260905104519 | 75 | 165 | 4.0 | 9.0 | 0.00 | 0.00 | 0.00 | 57 | 1011.7 |
| 20260905103015 | 76 | 131 | 2.0 | 8.0 | 0.00 | 0.00 | 0.00 | 57 | 1011.8 |
| 20260905101513 | 77 | 202 | 4.0 | 10.0 | 0.00 | 0.00 | 0.00 | 55 | 1011.7 |
| 20260905100009 | 75 | 98 | 4.0 | 9.0 | 0.00 | 0.00 | 0.00 | 59 | 1011.6 |
| 20260905094506 | 75 | 188 | 3.0 | 9.0 | 0.00 | 0.00 | 0.00 | 61 | 1011.7 |
| 20260905093004 | 75 | 181 | 3.0 | 8.0 | 0.00 | 0.00 | 0.00 | 65 | 1011.7 |
| 20260905091604 | 72 | 171 | 2.0 | 6.0 | 0.00 | 0.00 | 0.00 | 73 | 1011.5 |
| 20260905090057 | 71 | 188 | 1.0 | 4.0 | 0.00 | 0.00 | 0.00 | 80 | 1011.4 |
| 20260905084603 | 70 | 180 | 0.0 | 4.0 | 0.00 | 0.00 | 0.00 | 79 | 1011.3 |
| 20260905083050 | 69 | 304 | 0.0 | 2.0 | 0.00 | 0.00 | 0.00 | 81 | 1011.2 |
| 20260905081549 | 69 | 169 | 0.0 | 3.0 | 0.00 | 0.00 | 0.00 | 82 | 1010.7 |
| 20260905080059 | 68 | 132 | 0.0 | 3.0 | 0.00 | 0.00 | 0.00 | 82 | 1010.2 |
| 20260905074550 | 68 | 82 | 1.0 | 4.0 | 0.00 | 0.00 | 0.00 | 85 | 1009.6 |
| 20260905073039 | 68 | 98 | 0.0 | 2.0 | 0.00 | 0.00 | 0.00 | 85 | 1009.1 |
| 20260905071542 | 67 | 76 | 0.0 | 2.0 | 0.00 | 0.00 | 0.00 | 87 | 1008.8 |
| 20260905070033 | 66 | 284 | 0.0 | 2.0 | 0.00 | 0.00 | 0.00 | 87 | 1008.5 |
| 20260905064530 | 64 | 284 | 0.0 | 1.0 | 0.00 | 0.00 | 0.00 | 88 | 1008.3 |
| 20260905063030 | 64 | 284 | 0.0 | 1.0 | 0.00 | 0.00 | 0.00 | 89 | 1008.3 |
| 20260905061540 | 64 | 284 | 0.0 | 2.0 | 0.00 | 0.00 | 0.00 | 92 | 1008.2 |
| 20260905060048 | 63 | 284 | 0.0 | 1.0 | 0.00 | 0.00 | 0.00 | 93 | 1008.0 |
| 20260905054534 | 62 | 284 | 0.0 | 0.0 | 0.00 | 0.00 | 0.00 | 93 | 1007.9 |
| 20260905053024 | 62 | 284 | 0.0 | 3.0 | 0.00 | 0.00 | 0.00 | 93 | 1007.6 |
| 20260905051530 | 60 | 273 | 0.0 | 2.0 | 0.00 | 0.00 | 0.00 | 92 | 1007.3 |
| 20260905050020 | 60 | 273 | 0.0 | 2.0 | 0.00 | 0.00 | 0.00 | 91 | 1007.3 |
| 20260905044519 | 60 | 273 | 0.0 | 1.0 | 0.00 | 0.00 | 0.00 | 91 | 1007.1 |
| 20260905043019 | 60 | 49 | 1.0 | 3.0 | 0.00 | 0.00 | 0.00 | 92 | 1006.9 |
| 20260905041514 | 60 | 293 | 0.0 | 2.0 | 0.00 | 0.00 | 0.00 | 91 | 1006.7 |
| 20260905040017 | 60 | 338 | 0.0 | 2.0 | 0.00 | 0.00 | 0.00 | 90 | 1006.6 |
| 20260905034513 | 61 | 32 | 1.0 | 3.0 | 0.00 | 0.00 | 0.00 | 90 | 1006.4 |
| 20260905033009 | 61 | 25 | 0.0 | 1.0 | 0.00 | 0.00 | 0.00 | 90 | 1006.3 |
| 20260905031514 | 61 | 343 | 0.0 | 3.0 | 0.00 | 0.00 | 0.00 | 90 | 1006.1 |
| 20260905030007 | 61 | 69 | 0.0 | 0.0 | 0.00 | 0.00 | 0.00 | 90 | 1006.0 |
| 20260905024506 | 61 | 69 | 0.0 | 3.0 | 0.00 | 0.00 | 0.00 | 90 | 1006.0 |
| 20260905023014 | 62 | 313 | 0.0 | 2.0 | 0.00 | 0.00 | 0.00 | 89 | 1006.0 |
| 20260905021503 | 62 | 316 | 0.0 | 5.0 | 0.00 | 0.00 | 0.00 | 88 | 1006.0 |
| 20260905020002 | 62 | 360 | 0.0 | 5.0 | 0.00 | 0.00 | 0.00 | 89 | 1006.0 |